COSMOS 2143 DEB, 57722

Orbit data source: Space-Track

COSMOS 2143 DEB, 57722 is space debris in LEO originally from a launch on Thu, 16 May 1991 UTC launched from the Plesetsk Missile And Space Complex (PKMTR). Debris objects in space refer to the collection of defunct objects orbiting the Earth. Examples of debris include non-operational satellites, rocket bodies, and fragments generated from explosions, collisions, or faulty payload assembly.

Loading next visibility...
Identifier
57722, 1991-033K
Orbit
LEO
Country
Flag of CISCIS
Related business
Manufacturer
NPO PM
Mission
Spacecraft
Bus & Motor
Unknown
Mass
Unknown
Launch date (UTC)
1991-05-16 (35 years ago)
Launch vehicle
Unknown
Launch site
Plesetsk Missile And Space Complex (PKMTR)
Object type
Payload
Rocket body
Debris
Shape & HBR
Unknown shape, 0.2 m
Radar Cross Section
Medium (>0.1 m² and <1 m²)

Expand to show TLE details & history
Last TLE update: 2 days ago

TLE from 2 days ago
0 COSMOS 2143 DEB
1 57722U 91033K   26171.40408919  .00000127  00000-0  61485-3 0  9998
2 57722  82.5852 298.3626 0003077  95.4492 264.6952 12.66633239135230
Epoch: 2026-06-20T09:41Z
TLE epoch observation values (Epoch: 2026-06-20T09:41:53.306Z)
Latitude
-0.00006°
Longitude
-115.72872°
Altitude
1,398.643 km
Speed
7.161 km/s
True Right ascension
19h 53m 27s
True Declination
0° 00' 00"
Sunlit
Object was in full shadow at epoch
Visualization orbit readout
Latitude
Unknown
Longitude
Unknown
Altitude
Unknown
Speed
Unknown
Apparent Right ascension
Unknown
Apparent Declination
Unknown
Sunlit
N/A
Visualization observer readout
Local Sidereal Time
21:34:20
Azimuth
Unknown
Elevation
Unknown
Doppler factor
Unknown
Orbital elements
Apogee altitude
1,395.39 km
Perigee altitude
1,390.608 km
Semi-major axis
7,771.136 km
Eccentricity
0.00031
Inclination
82.5852°
RAAN
298.3626°
Arg. of periapsis
95.4492°
True anomaly
264.66009°
Mean anomaly
264.6952°
Eccentric anomaly
264.67765°
Mean motion
3.16823 °/min
Orbital period
113.63 mins
BSTAR
0.00061485
Loading maneuver chart data...
Computing Atmospheric mass density...
Loading historical data...
Loading historical data...
Loading historical data...
Loading historical data...
Loading historical data...
Loading historical data...
Loading historical data...

Documentation

Showing up to 5 results
|